Flag for Israel Weather past 2 weeks in Kfar Saba, Israel

Now
57 °F

Passing clouds.


Feels Like: 56 °F
Forecast: 54 / 65 °F
Wind: 7 mph from Southeast

Location: Dov Airport

Current Time: Dec 22, 2014 at 7:14:24 AM

Latest Report: Dec 22, 2014 at 6:50 AM


Visibility: N/A

Pressure: 30.07 "Hg

Humidity: 72%

Dew point: 48 °F

Location of Kfar SabaLocation

Historic Weather in Kfar Saba — Graph

°F

Kfar Saba temperature yesterday

Maximum temperature yesterday: 66 °F (at 12:50 PM)
Minimum temperature yesterday: 55 °F (at 5:50 AM)
Average temperature yesterday: 62 °F

Past Weeks' High & Low Weather Summary

 TemperatureHumidityPressure
High81 °F (Dec 11, 1:50 PM)88% (Dec 14, 5:50 AM)30.21 "Hg (Dec 14, 5:50 AM)
Low55 °F (Dec 15, 5:00 AM)32% (Dec 13, 10:50 AM)29.74 "Hg (Dec 9, 5:50 AM)
Average65 °F66%30.04 "Hg
* Reported Dec 7 5:50 AM — Dec 22 5:50 AM, Kfar Saba, Weather by CustomWeather, © 2014

Note: Actual official high and low records may vary slightly from our data, if they occured in-between our weather recording intervals... More about our weather records

Advertising

Kfar Saba weather history for previous 24 hours

 ConditionsComfort  
Time TempWeatherWind HumidityBarometerVisibility
5:50 AM
Dec 22
57 °FPassing clouds.6 mph77%30.07 "HgN/A
10:50 PM
Dec 21
57 °FClear.6 mph77%30.12 "Hg10 mi
9:50 PM59 °FClear.5 mph77%30.12 "Hg10 mi
8:50 PM59 °FClear.5 mph77%30.12 "Hg10 mi
7:50 PM61 °FClear.2 mph68%30.12 "Hg10 mi
6:50 PM63 °FClear.2 mph64%30.09 "Hg10 mi
5:50 PM63 °FPassing clouds.5 mph64%30.09 "HgN/A
4:50 PM64 °FPassing clouds.5 mph60%30.09 "HgN/A
3:50 PM66 °FPassing clouds.1 mph56%30.09 "HgN/A
2:50 PM64 °FPassing clouds.6 mph60%30.07 "HgN/A
1:50 PM66 °FPassing clouds.9 mph56%30.07 "HgN/A
12:50 PM66 °FPassing clouds.8 mph56%30.07 "HgN/A
11:50 AM63 °FLight rain. Passing clouds.9 mph68%30.09 "HgN/A
10:50 AM64 °FPassing clouds.2 mph64%30.12 "HgN/A
9:50 AM64 °FPassing clouds.2 mph68%30.12 "HgN/A
8:50 AM59 °FPassing clouds.6 mph77%30.12 "HgN/A
7:50 AM57 °FPassing clouds.6 mph88%30.09 "HgN/A
Weather by CustomWeather, © 2014

See weather overviewHow to use our weather pages